THY535 LTAI-LEPA

Flight info

Callsign THY535
Flight time N/A
Altitude 36000
Route LAMSA UT489 IMR UG802 KERMA DCT SIGFO DCT GARTA UL53 KRK UL869 LATAN DCT ULKEN DCT BEROL/N0461F370 DCT QUENN/N0461F360 DCT SUPUX/N0459F370 DCT RIXOT
Aircraft B738/M-SDE2E3FGHIRWXY/LB1

Departure

Time N/A
Airport Antalya International Airport (LTAI)

Arrival

Time 2026-04-30 21:06
Airport Palma de Mallorca Airport (LEPA)
Time Latitude Longitude Altitude Speed Heading
2026-04-30 19:36 39.37617 20.20656 36040 ft 401 kts 301°
2026-04-30 19:37 39.42073 20.11825 36036 ft 399 kts 297°
2026-04-30 19:37 39.44193 19.99326 36135 ft 397 kts 276°
2026-04-30 19:37 39.39153 19.73029 36109 ft 412 kts 254°
2026-04-30 19:38 39.38520 19.69195 36052 ft 400 kts 272°
2026-04-30 19:38 39.38496 19.65610 36052 ft 400 kts 270°
2026-04-30 19:38 39.37666 19.57417 36058 ft 402 kts 263°
2026-04-30 19:39 39.34260 19.34320 36054 ft 400 kts 263°
2026-04-30 19:39 39.30200 19.06160 36046 ft 398 kts 263°
2026-04-30 19:40 39.29512 18.98195 36095 ft 391 kts 276°
2026-04-30 19:40 39.34402 18.57757 36130 ft 390 kts 280°
2026-04-30 19:41 39.42741 17.88083 36279 ft 391 kts 279°
2026-04-30 19:41 39.43056 17.84582 36204 ft 393 kts 278°
2026-04-30 19:41 39.44898 17.64578 36114 ft 392 kts 279°
2026-04-30 19:42 39.53377 16.86531 36093 ft 388 kts 279°
2026-04-30 19:42 39.53721 16.83062 36147 ft 387 kts 279°
2026-04-30 19:43 39.54054 16.79599 36154 ft 388 kts 279°
2026-04-30 19:44 39.55687 16.63057 36164 ft 390 kts 279°
2026-04-30 19:44 39.60141 16.18041 36190 ft 392 kts 279°
2026-04-30 19:45 39.69756 15.63579 36097 ft 387 kts 288°
2026-04-30 19:45 39.71356 15.56468 36105 ft 387 kts 286°
2026-04-30 19:46 39.72744 15.49700 36105 ft 387 kts 286°
2026-04-30 19:46 39.74113 15.42932 36103 ft 387 kts 286°
2026-04-30 19:47 39.77715 15.25136 36084 ft 387 kts 286°
2026-04-30 19:47 39.80805 15.09790 36105 ft 386 kts 286°
2026-04-30 19:48 40.02072 14.01260 36152 ft 386 kts 285°
2026-04-30 19:48 40.17410 13.18412 36127 ft 387 kts 284°
2026-04-30 19:49 40.21666 12.92570 36119 ft 391 kts 278°
2026-04-30 19:49 40.19653 12.07135 36138 ft 390 kts 273°
2026-04-30 19:50 40.18647 11.50510 36139 ft 392 kts 272°
2026-04-30 19:50 40.17500 10.93487 36154 ft 393 kts 271°
2026-04-30 19:51 40.16741 10.63499 36146 ft 393 kts 271°
2026-04-30 19:51 40.16555 10.56356 36136 ft 393 kts 272°
2026-04-30 19:52 40.17031 10.49297 36154 ft 389 kts 280°
2026-04-30 19:52 40.17849 10.42279 36147 ft 390 kts 280°
2026-04-30 19:53 40.18647 10.35297 36156 ft 390 kts 280°
2026-04-30 19:53 40.19435 10.28272 36151 ft 390 kts 280°
2026-04-30 19:54 40.20216 10.21237 36159 ft 390 kts 280°
2026-04-30 19:54 40.20992 10.14207 36147 ft 391 kts 279°
2026-04-30 19:55 40.21764 10.07164 36157 ft 391 kts 279°
2026-04-30 19:55 40.22533 10.00104 36155 ft 392 kts 279°
2026-04-30 19:56 40.23299 9.93036 36158 ft 392 kts 279°
2026-04-30 19:56 40.24056 9.86011 36159 ft 393 kts 279°
2026-04-30 19:57 40.24816 9.78924 36153 ft 393 kts 279°
2026-04-30 19:57 40.25571 9.71832 36167 ft 394 kts 279°
2026-04-30 19:58 40.26323 9.64723 36161 ft 394 kts 279°
2026-04-30 19:58 40.27072 9.57606 36175 ft 395 kts 279°
2026-04-30 19:59 40.27818 9.50471 36152 ft 396 kts 279°
2026-04-30 20:00 40.28931 9.39752 36152 ft 396 kts 279°
2026-04-30 20:00 40.29667 9.32607 36167 ft 396 kts 278°
2026-04-30 20:01 40.30759 9.21926 36154 ft 396 kts 278°
2026-04-30 20:01 40.31484 9.14768 36143 ft 396 kts 278°
2026-04-30 20:02 40.32564 9.04034 36137 ft 396 kts 278°
2026-04-30 20:03 40.33636 8.93282 36125 ft 397 kts 278°
2026-04-30 20:03 40.34344 8.86112 36127 ft 397 kts 278°
2026-04-30 20:04 40.35050 8.78928 36123 ft 398 kts 278°
2026-04-30 20:05 40.36101 8.68134 36110 ft 398 kts 278°
2026-04-30 20:05 40.37141 8.57353 36117 ft 400 kts 278°
2026-04-30 20:06 40.37834 8.50110 36120 ft 401 kts 278°
2026-04-30 20:06 40.38524 8.42842 36105 ft 401 kts 277°
2026-04-30 20:07 40.39210 8.35577 36102 ft 401 kts 278°
2026-04-30 20:08 40.40231 8.24667 36103 ft 402 kts 277°
2026-04-30 20:08 40.40906 8.17386 36103 ft 403 kts 277°
2026-04-30 20:09 40.41579 8.10086 36105 ft 403 kts 277°
2026-04-30 20:09 40.42544 7.99099 36101 ft 404 kts 274°
2026-04-30 20:10 40.42612 7.88061 36106 ft 406 kts 271°
2026-04-30 20:11 40.42583 7.76936 36104 ft 407 kts 271°
2026-04-30 20:11 40.42586 7.69499 36092 ft 407 kts 271°
2026-04-30 20:12 40.42595 7.59613 36099 ft 407 kts 271°
2026-04-30 20:13 40.42598 7.52167 36094 ft 408 kts 271°
2026-04-30 20:13 40.42596 7.44718 36096 ft 408 kts 271°
2026-04-30 20:14 40.42589 7.37262 36092 ft 409 kts 271°
2026-04-30 20:14 40.42577 7.29803 36098 ft 409 kts 271°
2026-04-30 20:15 40.42561 7.22346 36099 ft 409 kts 271°
2026-04-30 20:15 40.42540 7.14929 36098 ft 409 kts 271°
2026-04-30 20:16 40.42514 7.07463 36097 ft 409 kts 271°
2026-04-30 20:16 40.42483 7.00011 36099 ft 409 kts 271°
2026-04-30 20:17 40.42447 6.92546 36097 ft 408 kts 271°
2026-04-30 20:17 40.42407 6.85087 36097 ft 408 kts 271°
2026-04-30 20:18 40.42362 6.77635 36089 ft 408 kts 270°
2026-04-30 20:18 40.42312 6.70179 36099 ft 409 kts 270°
2026-04-30 20:19 40.42257 6.62720 36092 ft 409 kts 270°
2026-04-30 20:19 40.42197 6.55255 36100 ft 409 kts 270°
2026-04-30 20:20 40.42133 6.47782 36103 ft 410 kts 270°
2026-04-30 20:20 40.42064 6.40354 36098 ft 410 kts 270°
2026-04-30 20:21 40.41990 6.32862 36102 ft 411 kts 270°
2026-04-30 20:21 40.41910 6.25358 36104 ft 412 kts 270°
2026-04-30 20:22 40.41826 6.17828 36103 ft 413 kts 270°
2026-04-30 20:22 40.41736 6.10278 36104 ft 414 kts 270°
2026-04-30 20:23 40.41642 6.02724 36100 ft 414 kts 269°
2026-04-30 20:23 40.41542 5.95152 36101 ft 415 kts 269°
2026-04-30 20:24 40.41438 5.87572 36105 ft 416 kts 269°
2026-04-30 20:24 40.41328 5.79988 36101 ft 416 kts 269°
2026-04-30 20:25 40.41154 5.68599 36093 ft 416 kts 269°
2026-04-30 20:26 40.40969 5.57260 36105 ft 416 kts 269°
2026-04-30 20:26 40.40773 5.45866 36105 ft 416 kts 269°
2026-04-30 20:27 40.40634 5.38192 35231 ft 422 kts 269°
2026-04-30 20:27 40.40491 5.30535 33886 ft 422 kts 268°
2026-04-30 20:28 40.40341 5.22831 32372 ft 423 kts 268°
2026-04-30 20:28 40.40186 5.15110 30876 ft 424 kts 269°
2026-04-30 20:29 40.40026 5.07358 29295 ft 424 kts 269°
2026-04-30 20:30 40.39781 4.96001 27579 ft 407 kts 269°
2026-04-30 20:30 40.39534 4.85034 25918 ft 395 kts 269°
2026-04-30 20:31 40.39285 4.74347 24316 ft 387 kts 269°
2026-04-30 20:32 40.37795 4.64217 22958 ft 376 kts 241°
2026-04-30 20:32 40.34742 4.58546 22664 ft 396 kts 236°
2026-04-30 20:33 40.33074 4.55605 22490 ft 405 kts 236°
2026-04-30 20:33 40.29730 4.49705 22134 ft 400 kts 236°
2026-04-30 20:33 40.28086 4.46779 21970 ft 398 kts 236°
2026-04-30 20:34 40.24826 4.40941 21641 ft 396 kts 236°
2026-04-30 20:34 40.21587 4.35127 21332 ft 395 kts 236°
2026-04-30 20:35 40.19970 4.32224 21172 ft 394 kts 236°
2026-04-30 20:35 40.18355 4.29328 21012 ft 394 kts 236°
2026-04-30 20:35 40.15139 4.23570 20688 ft 394 kts 236°
2026-04-30 20:36 40.13523 4.20680 20530 ft 394 kts 236°
2026-04-30 20:36 40.11905 4.17789 20371 ft 393 kts 236°
2026-04-30 20:36 40.08676 4.12030 20052 ft 392 kts 236°
2026-04-30 20:37 40.07068 4.09167 19888 ft 391 kts 236°
2026-04-30 20:37 40.05461 4.06306 19730 ft 390 kts 236°
2026-04-30 20:37 40.03858 4.03457 19564 ft 389 kts 236°
2026-04-30 20:37 40.02261 4.00620 19409 ft 387 kts 236°
2026-04-30 20:38 40.00667 3.97790 19255 ft 386 kts 236°
2026-04-30 20:38 39.99078 3.94974 19103 ft 385 kts 235°
2026-04-30 20:38 39.97491 3.92161 18939 ft 384 kts 236°
2026-04-30 20:39 39.94327 3.86563 18621 ft 383 kts 235°
2026-04-30 20:39 39.92742 3.83762 18468 ft 383 kts 235°
2026-04-30 20:39 39.91170 3.80987 18293 ft 376 kts 235°
2026-04-30 20:40 39.88187 3.75733 17958 ft 349 kts 235°
2026-04-30 20:40 39.86777 3.73253 17815 ft 331 kts 235°
2026-04-30 20:40 39.85440 3.70903 17676 ft 315 kts 235°
2026-04-30 20:41 39.82952 3.66529 17438 ft 286 kts 235°
2026-04-30 20:41 39.81795 3.64496 17313 ft 273 kts 236°
2026-04-30 20:41 39.80691 3.62559 17205 ft 260 kts 236°
2026-04-30 20:41 39.79629 3.60695 17109 ft 253 kts 236°
2026-04-30 20:42 39.78586 3.58863 17021 ft 252 kts 236°
2026-04-30 20:42 39.77542 3.57031 16930 ft 252 kts 236°
2026-04-30 20:42 39.75444 3.53354 16730 ft 254 kts 236°
2026-04-30 20:43 39.74432 3.51582 16624 ft 255 kts 235°
2026-04-30 20:43 39.73375 3.49734 16522 ft 255 kts 235°
2026-04-30 20:43 39.72313 3.47879 16411 ft 256 kts 235°
2026-04-30 20:44 39.70179 3.44157 16207 ft 257 kts 235°
2026-04-30 20:44 39.69205 3.42224 16101 ft 256 kts 243°
2026-04-30 20:44 39.67646 3.38089 15892 ft 254 kts 245°
2026-04-30 20:45 39.66110 3.33975 15684 ft 252 kts 245°
2026-04-30 20:45 39.65334 3.31935 15580 ft 251 kts 245°
2026-04-30 20:45 39.64560 3.29915 15478 ft 250 kts 245°
2026-04-30 20:46 39.62238 3.23896 15176 ft 247 kts 244°
2026-04-30 20:46 39.61468 3.21906 15071 ft 247 kts 244°
2026-04-30 20:47 39.59931 3.17938 14871 ft 246 kts 244°
2026-04-30 20:47 39.59166 3.15961 14773 ft 245 kts 244°
2026-04-30 20:48 39.57638 3.12020 14575 ft 244 kts 244°
2026-04-30 20:48 39.56881 3.10071 14464 ft 239 kts 244°
2026-04-30 20:48 39.56146 3.08180 14351 ft 231 kts 244°
2026-04-30 20:48 39.55437 3.06357 14255 ft 222 kts 244°
2026-04-30 20:49 39.54756 3.04604 14164 ft 213 kts 244°
2026-04-30 20:49 39.54102 3.02924 14072 ft 205 kts 244°
2026-04-30 20:49 39.53465 3.01285 13995 ft 202 kts 244°
2026-04-30 20:50 39.52421 2.98605 13868 ft 199 kts 244°
2026-04-30 20:50 39.51595 2.96483 13764 ft 198 kts 244°
2026-04-30 20:50 39.50965 2.94867 13504 ft 208 kts 244°
2026-04-30 20:50 39.50291 2.93137 13040 ft 218 kts 244°
2026-04-30 20:51 39.49602 2.91372 12579 ft 221 kts 244°
2026-04-30 20:51 39.48198 2.87779 11689 ft 226 kts 244°
2026-04-30 20:51 39.47487 2.85961 11263 ft 228 kts 244°
2026-04-30 20:52 39.46774 2.84137 10909 ft 226 kts 244°
2026-04-30 20:52 39.46064 2.82324 10535 ft 225 kts 244°
2026-04-30 20:52 39.44649 2.78716 9826 ft 224 kts 244°
2026-04-30 20:53 39.43944 2.76920 9440 ft 224 kts 244°
2026-04-30 20:53 39.43290 2.75102 9042 ft 223 kts 255°
2026-04-30 20:53 39.43243 2.73131 8659 ft 221 kts 279°
2026-04-30 20:54 39.42260 2.69670 7929 ft 217 kts 226°
2026-04-30 20:54 39.41390 2.68084 7560 ft 218 kts 243°
2026-04-30 20:54 39.40653 2.66344 7213 ft 223 kts 242°
2026-04-30 20:55 39.39169 2.63007 7077 ft 202 kts 242°
2026-04-30 20:55 39.38478 2.61465 7102 ft 200 kts 242°
2026-04-30 20:55 39.37773 2.59903 7037 ft 204 kts 242°
2026-04-30 20:56 39.36326 2.56651 6437 ft 206 kts 242°
2026-04-30 20:56 39.35625 2.55068 6158 ft 199 kts 246°
2026-04-30 20:56 39.35007 2.51614 5440 ft 200 kts 262°
2026-04-30 20:57 39.34753 2.49837 5072 ft 201 kts 262°
2026-04-30 20:57 39.34498 2.48051 4698 ft 203 kts 262°
2026-04-30 20:57 39.34244 2.46262 4314 ft 202 kts 262°
2026-04-30 20:58 39.33841 2.42684 3557 ft 200 kts 279°
2026-04-30 20:58 39.34396 2.41104 3183 ft 192 kts 319°
2026-04-30 20:58 39.35547 2.40378 2836 ft 184 kts 358°
2026-04-30 20:58 39.36760 2.40755 2506 ft 181 kts 29°
2026-04-30 20:59 39.38949 2.42352 2121 ft 185 kts 32°
2026-04-30 20:59 39.40067 2.43175 2085 ft 182 kts 32°
2026-04-30 21:00 39.42186 2.44814 2067 ft 173 kts 46°
2026-04-30 21:00 39.43562 2.47396 2107 ft 177 kts 57°
2026-04-30 21:01 39.44864 2.50074 2098 ft 174 kts 59°
2026-04-30 21:01 39.45284 2.50962 2090 ft 174 kts 60°
2026-04-30 21:01 39.46537 2.53632 2104 ft 174 kts 60°
2026-04-30 21:02 39.47167 2.54975 2111 ft 176 kts 59°
2026-04-30 21:02 39.47805 2.56335 2109 ft 177 kts 59°
2026-04-30 21:02 39.48443 2.57695 2103 ft 176 kts 59°
2026-04-30 21:02 39.49067 2.59026 2084 ft 170 kts 59°
2026-04-30 21:03 39.49675 2.60320 1937 ft 167 kts 60°
2026-04-30 21:03 39.50273 2.61595 1716 ft 164 kts 60°
2026-04-30 21:03 39.50858 2.62842 1506 ft 161 kts 59°
2026-04-30 21:03 39.51433 2.64066 1275 ft 155 kts 60°
2026-04-30 21:04 39.51976 2.65220 1080 ft 146 kts 59°
2026-04-30 21:04 39.52508 2.66354 899 ft 151 kts 59°
2026-04-30 21:04 39.53563 2.68597 496 ft 138 kts 58°
2026-04-30 21:05 39.54046 2.69617 316 ft 130 kts 58°
2026-04-30 21:05 39.54485 2.70575 142 ft 123 kts 60°
2026-04-30 21:05 39.54919 2.71471 30 ft 114 kts 58°
2026-04-30 21:05 39.55261 2.72225 29 ft 77 kts 59°
2026-04-30 21:06 39.55469 2.72657 29 ft 35 kts 58°
2026-04-30 21:06 39.55506 2.72759 29 ft 7 kts 81°
2026-04-30 21:06 39.55490 2.72818 29 ft 6 kts 123°
2026-04-30 21:06 39.55468 2.72861 29 ft 6 kts 123°
2026-04-30 21:07 39.55446 2.72903 29 ft 6 kts 123°
2026-04-30 21:07 39.55430 2.72932 29 ft 0 kts 125°
2026-04-30 21:08 39.55419 2.72947 29 ft 7 kts 135°
2026-04-30 21:09 39.55363 2.72984 29 ft 10 kts 157°
2026-04-30 21:09 39.55305 2.73027 29 ft 10 kts 148°
2026-04-30 21:09 39.55283 2.73099 29 ft 9 kts 69°
2026-04-30 21:09 39.55310 2.73158 29 ft 3 kts 56°
2026-04-30 21:10 39.55322 2.73182 29 ft 4 kts 58°
2026-04-30 21:10 39.55345 2.73233 29 ft 9 kts 63°
2026-04-30 21:10 39.55383 2.73315 29 ft 12 kts 60°
2026-04-30 21:10 39.55426 2.73415 29 ft 13 kts 84°
2026-04-30 21:11 39.55363 2.73491 29 ft 13 kts 147°
2026-04-30 21:11 39.55288 2.73550 29 ft 12 kts 148°
2026-04-30 21:11 39.55216 2.73608 29 ft 12 kts 156°
2026-04-30 21:11 39.55160 2.73553 29 ft 11 kts 238°
2026-04-30 21:12 39.55121 2.73469 29 ft 11 kts 239°
2026-04-30 21:12 39.55083 2.73386 29 ft 10 kts 239°
2026-04-30 21:12 39.55034 2.73330 29 ft 10 kts 189°
2026-04-30 21:12 39.54991 2.73323 29 ft 5 kts 186°
2026-04-30 21:13 39.54989 2.73323 29 ft 0 kts 185°